STARLINK-34185, 64744

Orbit data source: Space-Track

STARLINK-34185, 64744 is a payload satellite owned by SpaceX/Seattle (US) in LEO that was launched on Wed, 02 Jul 2025 UTC via an FALCON 9 launch vehicle from the Air Force Eastern Test Range (AFETR). Payload-class satellites include a variety of spacecraft equipped with specific instruments for various scientific and technological missions. These include communications satellites like Starlink; space stations such as the ISS; scientific satellites like the Hubble; Earth observation satellites from companies like Planet Labs, Umbra, and HawkEye 360; GPS; miniature CubeSats for education and research; and military/defense satellites.

Loading next visibility...
Identifier
64744, 2025-144W
Orbit
LEO
Last TLE update
12 hours ago
Origin
Manufacturer
SpaceX/Seattle
Mission
Operational spacecraft
Bus & Motor
STARLINK V2MO, Unknown motor
Mass
575 kg wet, ~530 kg dry
Launch date (UTC)
2025-07-02 (1 week ago)
Launch vehicle
FALCON 9
Launch site
Air Force Eastern Test Range (AFETR)
Object type
Payload
Rocket body
Debris
Shape & HBR
Unknown
Radar Cross Section
RCS unknown

Expand to show TLE details & history

TLE from 12 hours ago
0 STARLINK-34185
1 64744U 25144W   25191.66668981 -.01256977  00000-0 -50021-2 0  9998
2 64744  53.1535 231.6939 0000800  79.4463  28.5154 15.88395085  2574
Epoch: 2025-07-10T16:00Z
TLE epoch observation values (Epoch: 2025-07-10T16:00:01.999Z)
Latitude
49.7244°
Longitude
-178.71244°
Altitude
312.045 km
Speed
7.727 km/s
True Right ascension
23h 20m 30s
True Declination
49° 32' 36"
Sunlit
Object was in daylight at epoch
Visualization orbit readout
Latitude
-5.97699°
Longitude
-115.29034°
Altitude
312.825 km
Speed
7.721 km/s
Apparent Right ascension
04h 02m 55s
Apparent Declination
-22° 37' 21"
Sunlit
Object is in daylight
Visualization observer readout
Local Sidereal Time
16:42:03
Azimuth
28.517° NE
Elevation
-70.822°
Doppler factor
1
Orbital elements
Apogee altitude
307.581 km
Perigee altitude
306.511 km
Semi-major axis
6,685.183 km
Eccentricity
0.00008
Inclination
53.1535°
RAAN
231.6939°
Arg. of periapsis
79.4463°
True anomaly
Unknown
Mean anomaly
28.5154°
Eccentric anomaly
Unknown
Mean motion
3.97076 °/min
Orbital period
90.66 mins
BSTAR
-0.0050021
Loading maneuver chart data...
Loading SW <> Apogee altitude chart data...
Loading historical data...
Loading historical data...
Loading historical data...
Loading historical data...
Loading historical data...
Loading historical data...
Loading historical data...

STARLINK-34185 Visibility forecast

Observer location: undefined°, undefined°

Span
Click to sort rows by Start time (UTC) header in descending order
Start Az.
Max El. time (UTC)
Max El. Az.
Max El.
End time (UTC)
End Az.
5 mins2025-07-11 05:19:10.542Z218.848° SW2025-07-11 05:21:10.542Z190.488° SSW36.555°2025-07-11 05:24:10.542Z56.399° ENE
|